Location: Marcé
(47.5801°N, 0.3280°W)
Time: 03:22:50
(UTC+01:00)

Explorer 11/Cluster Stage 4 - Pass Details

Date: 06 December 2021
Orbit: 467 x 1255 km, 28.8° (Epoch: 26 January)

Event Time Altitude Azimuth Distance (km) Brightness Sun altitude
Rises 02:10:57 0° 209° (SSW) 3,282 - -60.4°
Reaches altitude 10° 02:16:18 10° 167° (SSE) 2,615 - -59.8°
Maximum altitude 02:17:01 10° 161° (SSE) 2,633 - -59.7°
Drops below altitude 10° 02:17:44 10° 154° (SSE) 2,680 - -59.6°
Sets 02:23:56 0° 115° (ESE) 3,889 - -58.9°
